DW8024 Weather Reports


Display with metric or nautical units.
time (UTC)temp
F
wind
direction
speed
MPH
gust
MPH
rain 1hr
in
rain 24hr
in
rain mn
in
humidity
%
barometer
mb
20171123112006 46 188 13.0 27.0 0.01 0.17 0.06 83 989.6
20171123111509 46 184 12.0 26.0 0.01 0.17 0.06 84 989.8
20171123110506 45 182 12.0 23.0 0.01 0.17 0.06 83 989.6
20171123110010 45 179 12.0 28.0 0.01 0.17 0.06 83 989.7
20171123105506 45 182 14.0 28.0 0.01 0.17 0.06 83 989.7
20171123105007 45 181 15.0 28.0 0.01 0.17 0.06 83 989.7
20171123104509 45 176 14.0 28.0 0.00 0.16 0.05 83 989.7
20171123104006 45 176 13.0 21.0 0.00 0.16 0.05 84 989.6
20171123103506 45 179 12.0 21.0 0.00 0.16 0.05 83 989.5
20171123103009 45 179 12.0 21.0 0.00 0.16 0.05 83 989.7
20171123102506 45 183 13.0 24.0 0.00 0.16 0.05 83 989.7
20171123102006 45 182 12.0 24.0 0.00 0.16 0.05 83 989.5
20171123101509 45 182 12.0 19.0 0.00 0.16 0.05 83 989.5
20171123101006 45 183 11.0 18.0 0.00 0.16 0.05 84 989.4
20171123100506 44 181 11.0 18.0 0.00 0.16 0.05 84 989.3
20171123100009 44 179 12.0 19.0 0.00 0.16 0.05 85 989.3
20171123095505 44 179 12.0 20.0 0.00 0.16 0.05 85 989.2
20171123095006 43 179 12.0 21.0 0.00 0.16 0.05 86 989.2
20171123094510 43 178 12.0 23.0 0.00 0.16 0.05 86 989.1
20171123094006 43 178 12.0 23.0 0.00 0.16 0.05 87 989.0
20171123093506 42 181 11.0 17.0 0.00 0.16 0.05 88 989.0
20171123093009 42 178 10.0 17.0 0.00 0.16 0.05 88 989.1
20171123092506 42 175 10.0 16.0 0.00 0.16 0.05 88 989.1
20171123092005 42 174 10.0 15.0 0.00 0.16 0.05 88 989.0
20171123091509 42 174 10.0 18.0 0.00 0.16 0.05 88 989.0
20171123091005 42 174 9.0 18.0 0.00 0.16 0.05 88 988.9
20171123090506 42 174 9.0 15.0 0.00 0.16 0.05 88 988.9
20171123090008 42 175 9.0 15.0 0.00 0.16 0.05 88 988.9
20171123085506 41 176 9.0 15.0 0.00 0.16 0.05 88 988.9
20171123085005 41 175 9.0 14.0 0.00 0.16 0.05 88 988.8
20171123084509 41 176 8.0 13.0 0.00 0.16 0.05 88 988.7
20171123084006 41 177 9.0 14.0 0.00 0.16 0.05 87 988.7
20171123083505 41 177 9.0 14.0 0.00 0.16 0.05 87 988.6
20171123083009 41 179 8.0 14.0 0.00 0.16 0.05 87 988.6
20171123082506 41 184 8.0 14.0 0.00 0.16 0.05 88 988.6
20171123082006 41 185 9.0 16.0 0.00 0.16 0.05 88 988.6
20171123081508 41 185 9.0 16.0 0.00 0.16 0.05 88 988.5
20171123081006 41 185 8.0 18.0 0.00 0.16 0.05 88 988.4
20171123080009 41 187 8.0 14.0 0.00 0.16 0.05 88 988.1
20171123075506 41 190 8.0 19.0 0.00 0.16 0.05 89 988.0
20171123075006 41 191 8.0 19.0 0.00 0.16 0.05 88 987.9
20171123074509 41 196 7.0 15.0 0.00 0.16 0.05 89 987.9
20171123074007 41 199 7.0 15.0 0.00 0.16 0.05 89 987.7
20171123073506 40 200 7.0 14.0 0.00 0.16 0.05 89 987.7
20171123073009 40 201 7.0 13.0 0.00 0.16 0.05 89 987.6
20171123072505 40 200 7.0 14.0 0.00 0.16 0.05 89 987.5
20171123072006 40 196 7.0 14.0 0.00 0.16 0.05 89 987.2
20171123071508 40 199 6.0 14.0 0.00 0.16 0.05 89 987.2
20171123071006 41 200 7.0 16.0 0.00 0.16 0.05 89 987.1
20171123070505 41 202 8.0 16.0 0.00 0.16 0.05 89 986.9
20171123070009 41 204 7.0 16.0 0.00 0.16 0.05 89 986.8
20171123065506 41 207 6.0 15.0 0.00 0.16 0.05 89 986.7
20171123065005 41 213 7.0 13.0 0.00 0.16 0.05 89 986.6
20171123064509 40 205 7.0 13.0 0.00 0.16 0.05 89 986.6
20171123064005 40 201 6.0 12.0 0.00 0.16 0.05 89 986.4
20171123063505 40 207 6.0 15.0 0.00 0.16 0.05 88 986.2
20171123063008 40 206 6.0 15.0 0.00 0.16 0.05 88 986.1
20171123062506 41 204 5.0 11.0 0.00 0.16 0.05 88 986.0
20171123062005 41 202 5.0 11.0 0.00 0.16 0.05 88 986.0
20171123061509 41 200 4.0 10.0 0.00 0.16 0.05 88 985.8
20171123061005 41 199 4.0 10.0 0.00 0.16 0.05 87 985.8
20171123060506 41 204 4.0 13.0 0.00 0.16 0.05 87 985.7
20171123060009 41 212 5.0 13.0 0.00 0.16 0.05 87 985.6
20171123055505 42 220 5.0 11.0 0.00 0.16 0.05 87 985.6
20171123055005 42 233 5.0 11.0 0.00 0.16 0.05 87 985.6
20171123054508 42 242 5.0 13.0 0.00 0.16 0.05 87 985.5
20171123054005 42 238 5.0 13.0 0.00 0.16 0.05 87 985.3
20171123053505 42 244 6.0 13.0 0.00 0.16 0.05 88 985.2
20171123053008 42 254 6.0 16.0 0.00 0.16 0.05 88 985.1
20171123052506 42 255 6.0 16.0 0.00 0.16 0.05 89 985.0
20171123052005 42 265 7.0 15.0 0.00 0.16 0.05 89 984.9
20171123051509 43 268 7.0 14.0 0.00 0.16 0.05 89 984.8
20171123051005 43 268 8.0 14.0 0.00 0.16 0.05 90 984.7
20171123050505 43 276 8.0 16.0 0.00 0.16 0.05 90 984.5
20171123050009 43 280 9.0 17.0 0.00 0.16 0.05 90 984.4
20171123045505 43 275 10.0 18.0 0.01 0.16 0.05 91 984.2
20171123045005 43 275 10.0 18.0 0.02 0.16 0.05 92 984.1
20171123044508 44 278 10.0 20.0 0.02 0.16 0.05 92 984.0
20171123044006 44 280 11.0 20.0 0.02 0.16 0.05 92 983.8
20171123043505 44 281 11.0 18.0 0.02 0.16 0.05 92 983.5
20171123043009 44 282 10.0 21.0 0.02 0.16 0.05 92 983.4
20171123042505 44 285 11.0 21.0 0.02 0.16 0.05 92 983.2
20171123042006 44 287 12.0 21.0 0.02 0.17 0.05 92 983.1
20171123041508 44 286 12.0 21.0 0.03 0.17 0.05 92 982.9
20171123041005 45 286 11.0 19.0 0.03 0.17 0.05 92 982.8
20171123040505 45 288 12.0 21.0 0.03 0.17 0.05 93 982.6
20171123040008 45 287 11.0 21.0 0.03 0.18 0.05 93 982.5
20171123035506 46 287 10.0 19.0 0.02 0.18 0.04 93 982.4
20171123035005 46 284 12.0 23.0 0.01 0.17 0.03 93 982.2
20171123034508 46 286 13.0 24.0 0.01 0.17 0.03 93 982.0
20171123034005 46 284 12.0 24.0 0.01 0.18 0.03 93 981.8
20171123033505 47 278 12.0 20.0 0.02 0.19 0.03 93 981.7
20171123033008 47 276 10.0 18.0 0.02 0.19 0.03 93 981.5
20171123032506 47 273 8.0 16.0 0.02 0.21 0.03 93 981.3
20171123032005 47 269 8.0 19.0 0.02 0.23 0.03 93 981.3
20171123031508 47 269 10.0 19.0 0.02 0.24 0.02 93 981.3
20171123031006 48 276 10.0 20.0 0.02 0.25 0.02 93 981.4
20171123030505 48 274 10.0 21.0 0.02 0.27 0.02 92 981.2
20171123030009 49 268 8.0 21.0 0.02 0.28 0.02 92 981.0
20171123025505 49 270 7.0 16.0 0.02 0.29 0.02 92 981.0
20171123025005 50 271 8.0 16.0 0.02 0.31 0.02 92 980.8
20171123024509 50 243 6.0 16.0 0.02 0.32 0.02 92 980.7
20171123024005 51 193 5.0 12.0 0.01 0.31 0.01 93 980.3
20171123023505 51 189 6.0 12.0 0.01 0.32 0.01 93 980.2
20171123023008 51 186 7.0 11.0 0.01 0.33 0.01 92 980.2
20171123022505 51 187 7.0 13.0 0.01 0.33 0.01 92 980.1
20171123022005 51 184 7.0 13.0 0.01 0.34 0.01 92 980.1
20171123021508 51 182 7.0 12.0 0.00 0.33 0.00 92 980.0
20171123021005 51 184 8.0 12.0 0.00 0.33 0.00 92 979.9
20171123020505 51 181 8.0 16.0 0.00 0.34 0.00 92 980.0
20171123020008 51 175 7.0 16.0 0.00 0.34 0.00 92 980.0
20171123015505 51 177 6.0 12.0 0.00 0.34 0.00 91 980.0
20171123015005 51 178 6.0 10.0 0.00 0.36 0.00 91 979.9
20171123014508 51 183 5.0 9.0 0.00 0.37 0.00 91 979.8
20171123014005 51 190 4.0 9.0 0.00 0.37 0.00 91 979.8
20171123013505 51 190 4.0 10.0 0.00 0.38 0.00 91 979.8
20171123013008 51 190 5.0 10.0 0.00 0.40 0.00 91 979.9
20171123012504 51 188 5.0 9.0 0.00 0.40 0.00 91 979.9
20171123012005 51 188 5.0 12.0 0.00 0.40 0.00 91 979.9
20171123011508 51 188 5.0 12.0 0.00 0.40 0.00 91 980.0
20171123011004 51 195 4.0 9.0 0.00 0.40 0.00 91 980.0
20171123010505 51 206 4.0 9.0 0.00 0.40 0.00 91 980.0
20171123010008 51 197 5.0 10.0 0.00 0.40 0.00 91 980.0
20171123005504 51 191 5.0 10.0 0.00 0.40 0.00 91 979.9
20171123005005 52 198 5.0 11.0 0.00 0.40 0.00 91 979.9
20171123004508 52 196 6.0 11.0 0.01 0.40 0.00 91 979.9
20171123004005 52 194 5.0 11.0 0.01 0.40 0.00 92 979.9
20171123003504 52 197 4.0 9.0 0.01 0.40 0.00 92 979.9
20171123003008 52 212 5.0 12.0 0.01 0.40 0.00 91 979.9
20171123002505 53 232 5.0 12.0 0.02 0.40 0.00 91 979.9
20171123002004 53 243 5.0 11.0 0.04 0.40 0.00 91 979.8
20171123001508 53 235 5.0 11.0 0.04 0.40 0.00 91 979.7
20171123001005 53 224 7.0 18.0 0.04 0.40 0.00 91 979.6
20171123000505 53 213 9.0 21.0 0.04 0.40 0.00 91 979.5
20171123000016 54 198 10.0 21.0 0.04 0.41 0.00 91 979.4
20171122235505 54 194 9.0 20.0 0.04 0.41 0.41 92 979.2
20171122235005 54 203 8.0 17.0 0.05 0.42 0.41 92 979.1
20171122234508 54 200 10.0 17.0 0.04 0.41 0.40 92 979.1
20171122234004 55 196 10.0 18.0 0.04 0.41 0.40 91 979.0
20171122233505 55 197 12.0 22.0 0.04 0.41 0.40 91 978.9
20171122233008 55 187 16.0 34.0 0.04 0.41 0.40 90 978.7
20171122232505 56 177 17.0 34.0 0.03 0.40 0.39 90 978.4
20171122232004 56 174 16.0 28.0 0.01 0.38 0.37 89 977.9
20171122231508 56 172 16.0 28.0 0.01 0.38 0.37 89 977.8
20171122231005 56 172 16.0 29.0 0.01 0.38 0.37 90 977.8
20171122230504 56 173 17.0 29.0 0.01 0.38 0.37 90 977.9
20171122230008 56 171 16.0 28.0 0.01 0.38 0.37 90 978.0
20171122225505 56 172 15.0 26.0 0.01 0.38 0.37 90 978.0
20171122225005 56 173 14.0 27.0 0.00 0.37 0.36 90 978.0
20171122224507 56 173 15.0 38.0 0.00 0.37 0.36 90 978.2
20171122224004 56 172 15.0 38.0 0.00 0.37 0.36 90 978.2
20171122223505 56 171 13.0 24.0 0.00 0.37 0.36 90 978.3
20171122223007 56 171 14.0 26.0 0.00 0.37 0.36 90 978.3
20171122222504 56 171 16.0 26.0 0.00 0.37 0.36 90 978.3
20171122222005 56 170 15.0 26.0 0.00 0.38 0.36 90 978.4
20171122221507 56 168 14.0 24.0 0.00 0.38 0.36 90 978.5
20171122221004 56 168 13.0 25.0 0.00 0.38 0.36 90 978.4
20171122220504 56 170 13.0 27.0 0.00 0.38 0.36 90 978.5
20171122215505 56 170 12.0 23.0 0.01 0.38 0.36 90 978.5
20171122214508 56 170 12.0 26.0 0.03 0.38 0.36 90 978.7
20171122214005 56 169 12.0 24.0 0.03 0.38 0.36 90 978.9
20171122213505 56 170 13.0 24.0 0.03 0.38 0.36 90 978.9
20171122213007 55 173 13.0 21.0 0.03 0.38 0.36 91 979.0
20171122212505 55 174 14.0 21.0 0.03 0.38 0.36 91 979.2
20171122212004 55 173 12.0 26.0 0.03 0.38 0.36 91 979.4
20171122211507 55 174 11.0 26.0 0.03 0.38 0.36 91 979.5
20171122211004 55 175 12.0 19.0 0.03 0.38 0.36 91 979.6
20171122210504 55 172 12.0 20.0 0.03 0.38 0.36 91 979.7
20171122210007 55 174 11.0 20.0 0.02 0.37 0.35 90 979.6
20171122205505 56 176 13.0 22.0 0.02 0.37 0.35 90 979.6
20171122205004 56 173 13.0 22.0 0.01 0.36 0.34 89 979.8
20171122204507 56 171 13.0 23.0 0.01 0.35 0.33 88 979.7
20171122204004 56 169 14.0 23.0 0.01 0.35 0.33 87 979.7
20171122203505 56 168 14.0 23.0 0.01 0.35 0.33 86 979.6
20171122203008 56 167 12.0 21.0 0.01 0.35 0.33 87 979.7
20171122202504 56 167 12.0 21.0 0.01 0.35 0.33 87 979.8
20171122202005 56 167 13.0 24.0 0.01 0.35 0.33 86 979.9
20171122201507 56 168 14.0 26.0 0.01 0.35 0.33 86 980.0
20171122201004 57 171 14.0 26.0 0.01 0.35 0.33 86 980.0
20171122200504 57 172 17.0 36.0 0.01 0.35 0.33 86 980.2
20171122200007 57 173 17.0 36.0 0.01 0.35 0.33 86 980.1
20171122195504 56 172 15.0 26.0 0.01 0.35 0.33 86 979.9
20171122195004 56 171 13.0 25.0 0.01 0.35 0.33 87 979.8
20171122194507 56 173 14.0 25.0 0.00 0.34 0.32 87 980.0
20171122194007 56 171 15.0 25.0 0.00 0.34 0.32 87 980.2
20171122193504 56 171 16.0 29.0 0.00 0.34 0.32 87 980.3
20171122193007 56 172 17.0 32.0 0.00 0.34 0.32 87 980.4
20171122192504 56 171 18.0 33.0 0.00 0.34 0.32 86 980.4
20171122192004 57 172 18.0 35.0 0.00 0.34 0.32 86 980.4
20171122191507 57 174 17.0 35.0 0.00 0.34 0.32 86 980.6
20171122191004 57 169 16.0 34.0 0.00 0.34 0.32 86 980.4
20171122190504 57 169 17.0 38.0 0.00 0.34 0.32 87 980.5
20171122190007 57 171 18.0 38.0 0.00 0.34 0.32 87 980.5
20171122185504 57 171 19.0 34.0 0.00 0.34 0.32 87 980.7
20171122185004 57 171 18.0 34.0 0.00 0.34 0.32 87 980.6
20171122184507 57 170 16.0 28.0 0.00 0.34 0.32 87 980.9
20171122184004 57 168 16.0 28.0 0.00 0.34 0.32 87 980.9
20171122183504 57 169 15.0 28.0 0.00 0.34 0.32 88 981.1
20171122183008 57 172 16.0 28.0 0.00 0.34 0.32 88 981.2
20171122182504 57 171 16.0 28.0 0.00 0.35 0.32 89 981.2
20171122182004 57 170 14.0 27.0 0.00 0.35 0.32 89 981.2
20171122181004 57 169 14.0 24.0 0.01 0.37 0.32 89 981.3
20171122180505 57 171 15.0 24.0 0.01 0.38 0.32 89 981.3
20171122175504 57 173 16.0 28.0 0.01 0.39 0.32 89 981.4
20171122175004 57 171 16.0 25.0 0.01 0.40 0.32 89 981.6
20171122174507 57 171 17.0 28.0 0.01 0.40 0.32 90 981.7
20171122174004 57 172 17.0 28.0 0.01 0.40 0.32 90 981.8
20171122173504 57 172 15.0 24.0 0.01 0.40 0.32 90 981.9
20171122173007 57 170 14.0 24.0 0.02 0.40 0.32 89 981.8
20171122172504 57 171 15.0 26.0 0.02 0.40 0.32 89 982.0
20171122172004 58 171 15.0 26.0 0.02 0.40 0.32 88 982.1
20171122171507 58 170 16.0 29.0 0.01 0.39 0.31 88 982.1
20171122171004 58 170 18.0 31.0 0.01 0.39 0.31 87 982.2
20171122170503 58 170 17.0 31.0 0.01 0.40 0.31 87 982.2
20171122165504 59 169 20.0 31.0 0.01 0.40 0.31 85 982.4
20171122164507 59 168 19.0 32.0 0.01 0.40 0.31 84 982.4
20171122164004 59 169 18.0 34.0 0.01 0.40 0.31 84 982.5
20171122162504 59 167 17.0 32.0 0.00 0.40 0.30 85 982.6
20171122162004 58 166 16.0 27.0 0.00 0.40 0.30 85 982.7
20171122161507 58 166 15.0 27.0 0.00 0.40 0.30 85 982.7
20171122160504 58 168 14.0 28.0 0.00 0.41 0.30 85 983.0
20171122160007 58 167 15.0 28.0 0.00 0.41 0.30 85 983.1
20171122155503 58 168 16.0 28.0 0.00 0.42 0.30 85 983.3
20171122155004 59 167 15.0 29.0 0.00 0.43 0.30 85 983.5
20171122154507 59 168 16.0 29.0 0.00 0.44 0.30 85 983.6
20171122154003 59 168 17.0 28.0 0.00 0.45 0.30 85 983.6
20171122153504 59 168 15.0 28.0 0.00 0.46 0.30 85 983.6
20171122153007 58 169 15.0 28.0 0.00 0.47 0.30 85 983.9
20171122152503 58 169 16.0 29.0 0.00 0.48 0.30 85 983.9
20171122152005 58 170 15.0 29.0 0.00 0.48 0.30 85 984.1
20171122151506 58 171 13.0 21.0 0.00 0.48 0.30 86 984.1
20171122151004 58 172 14.0 25.0 0.00 0.48 0.30 86 984.2
20171122150503 58 173 15.0 28.0 0.00 0.48 0.30 85 984.3
20171122150007 59 171 15.0 28.0 0.00 0.48 0.30 85 984.3
20171122145003 59 174 14.0 30.0 0.00 0.48 0.30 84 984.6
20171122144506 59 172 15.0 23.0 0.00 0.48 0.30 84 984.7
20171122144004 59 173 15.0 25.0 0.00 0.48 0.30 84 984.7
20171122143007 59 175 15.0 24.0 0.00 0.48 0.30 84 984.9
20171122142503 59 175 15.0 26.0 0.00 0.48 0.30 84 985.1
20171122142004 59 174 16.0 30.0 0.00 0.48 0.30 84 985.1
20171122141507 59 173 17.0 31.0 0.00 0.48 0.30 84 985.2
20171122141003 59 172 17.0 31.0 0.00 0.48 0.30 84 985.1
20171122140503 59 171 16.0 25.0 0.00 0.48 0.30 84 985.2
20171122140007 58 170 15.0 27.0 0.00 0.48 0.30 84 985.3
20171122135503 58 170 14.0 27.0 0.00 0.48 0.30 83 985.3
20171122135004 58 170 14.0 24.0 0.00 0.48 0.30 83 985.3
20171122134506 58 171 15.0 25.0 0.00 0.48 0.30 83 985.4
20171122134004 58 170 17.0 33.0 0.00 0.48 0.30 83 985.5
20171122133503 58 168 16.0 33.0 0.00 0.48 0.30 83 985.6
20171122133007 58 172 15.0 26.0 0.00 0.48 0.30 84 985.6
20171122132503 58 171 15.0 26.0 0.00 0.48 0.30 84 985.6
20171122132004 58 169 14.0 27.0 0.00 0.48 0.30 84 985.7
20171122131506 58 170 15.0 27.0 0.00 0.48 0.30 83 985.9
20171122131004 58 170 15.0 26.0 0.00 0.48 0.30 83 986.1
20171122130503 58 171 15.0 26.0 0.00 0.48 0.30 83 986.3
20171122130007 58 171 16.0 25.0 0.00 0.48 0.30 83 986.4
20171122125503 58 171 16.0 27.0 0.00 0.48 0.30 83 986.4
20171122125004 58 169 17.0 27.0 0.00 0.48 0.30 83 986.4
20171122124506 58 168 16.0 27.0 0.00 0.48 0.30 83 986.5
20171122124003 58 170 16.0 28.0 0.00 0.48 0.30 83 986.6
20171122123503 58 171 15.0 28.0 0.00 0.48 0.30 83 986.7
20171122123006 58 169 16.0 28.0 0.00 0.48 0.30 84 986.9
20171122122504 58 169 17.0 28.0 0.00 0.48 0.30 83 987.0
20171122122004 58 170 15.0 27.0 0.00 0.48 0.30 83 987.3
20171122121507 58 171 14.0 27.0 0.00 0.48 0.30 83 987.3
20171122121003 58 168 15.0 30.0 0.00 0.48 0.30 82 987.3
20171122120503 58 166 16.0 30.0 0.00 0.48 0.30 82 987.3
20171122120007 59 171 18.0 27.0 0.00 0.48 0.30 82 987.4
20171122115503 59 174 19.0 33.0 0.00 0.48 0.30 81 987.7
20171122115004 59 175 17.0 33.0 0.00 0.48 0.30 81 987.6
20171122114506 59 175 17.0 32.0 0.00 0.48 0.30 82 987.9
20171122114003 59 176 18.0 32.0 0.00 0.48 0.30 82 988.0
20171122113503 58 179 18.0 32.0 0.00 0.48 0.30 82 988.1
20171122113007 58 179 19.0 34.0 0.00 0.48 0.30 82 988.2